Theta_e
286 287 287 288 289 290 291 292 292 292 292 292 293 292 292 292 292 292 291 290 290 289 290 289 288 289 289 289 289 289 288 289 288 290 290 289 286 285 285 285 285 284 284
285 285 285 286 287 287 288 289 289 288 288 287 287 287 287 288 288 288 287 287 285 285 285 284 284 286 284 285 285 284 284 285 285 284 286 285 283 281 282 280 280 281 281
284 283 283 284 284 285 286 286 287 287 286 285 285 284 284 284 285 286 286 284 283 283 282 282 282 282 282 283 282 282 283 285 284 284 282 284 283 279 279 278 278 278 280
282 281 281 281 282 282 283 283 284 284 284 283 283 282 282 283 283 283 284 283 282 282 282 281 281 281 280 280 280 280 281 281 280 280 279 279 278 278 277 275 275 276 276
280 280 280 281 282 282 282 282 282 283 282 282 281 281 282 283 284 282 283 282 282 281 280 281 281 281 284 283 281 279 279 278 277 277 276 276 275 274 273 275 274 274 275
278 278 279 279 279 280 280 280 281 281 281 280 280 280 280 282 285 285 282 281 280 280 278 279 280 280 280 282 282 281 280 277 276 275 275 273 273 274 274 274 273 272 270
276 277 277 277 277 277 278 278 278 278 278 278 279 279 279 280 283 283 281 279 278 278 278 279 279 279 279 278 279 279 279 280 280 276 274 274 273 275 275 274 273 272 271
275 275 276 276 276 276 276 276 276 276 276 276 277 278 279 280 282 281 280 279 278 277 277 278 278 278 279 277 277 276 277 277 278 278 276 276 276 277 276 275 273 271 271
274 274 275 275 275 275 274 274 275 275 275 275 276 276 277 278 281 281 279 278 277 276 277 277 277 277 279 279 276 275 275 276 278 278 278 278 278 278 278 274 266 266 264
273 273 273 274 274 273 273 274 275 275 275 275 275 275 275 275 280 280 278 278 276 277 277 277 278 277 279 279 276 274 273 274 275 274 274 274 275 275 276 274 272 262 264
272 272 272 272 272 272 273 273 274 273 273 273 273 273 273 273 275 279 279 276 276 275 275 275 276 278 279 279 279 274 274 276 272 270 270 270 271 272 272 272 272 270 265
271 270 270 271 272 272 271 271 272 272 271 270 270 270 271 272 274 276 277 277 277 275 274 275 275 279 278 278 276 277 277 273 264 263 263 265 268 268 270 270 269 268 269
268 268 268 269 271 271 270 269 268 269 268 269 270 268 269 272 271 274 276 276 276 275 275 276 277 277 276 274 275 275 270 266 264 260 263 266 268 269 267 264 264 263 263
266 266 266 267 267 267 269 269 268 267 267 269 268 266 265 268 269 270 272 272 273 273 274 272 274 274 274 273 269 270 269 268 266 264 264 265 263 260 261 262 262 265 263
266 266 266 265 266 265 267 266 268 268 268 264 263 265 262 262 268 273 273 269 268 272 267 262 263 264 264 264 264 263 265 264 262 262 260 258 261 263 263 262 260 261 260
265 265 265 265 263 264 264 264 269 270 271 271 272 269 269 271 273 274 275 276 276 277 261 259 261 263 263 263 262 263 262 261 262 261 258 258 261 262 262 263 263 259 260
265 265 264 265 264 262 262 262 260 264 271 271 272 272 272 273 273 274 275 275 276 272 257 257 258 260 260 261 261 260 261 261 258 257 256 260 261 261 260 260 261 260 260
260 263 262 262 262 260 261 260 259 258 257 259 267 269 271 273 273 273 274 272 258 259 253 254 255 257 258 259 258 258 259 258 256 258 258 258 255 254 258 258 259 260 260
259 258 260 259 260 260 260 258 258 256 255 254 255 263 264 270 271 271 271 257 255 253 252 253 254 255 257 255 257 255 254 256 256 254 252 256 255 251 257 259 260 259 260
258 260 259 259 258 257 257 257 256 255 254 253 254 254 255 256 254 254 254 254 253 256 256 256 256 255 255 255 255 254 254 252 254 253 255 255 256 254 258 258 259 259 259
258 257 259 257 257 257 258 257 257 255 255 254 257 256 266 257 259 257 255 255 257 257 258 257 256 255 255 254 253 253 253 255 256 253 254 255 253 255 256 258 259 259 259
258 256 255 256 257 259 258 256 254 254 254 255 257 255 268 263 256 257 258 258 259 258 258 257 257 256 256 255 255 255 255 255 255 253 254 255 253 254 255 257 257 258 258
257 256 255 252 253 254 253 252 253 255 256 256 257 258 255 258 259 259 260 260 259 258 258 256 257 258 256 256 256 256 256 256 256 253 253 253 253 254 253 255 256 257 257
255 256 255 254 253 254 255 255 255 255 257 257 258 258 259 259 259 260 260 261 260 260 260 259 259 259 259 256 256 256 257 257 255 254 252 254 254 254 254 255 256 256 256
253 253 254 255 255 256 255 256 256 257 258 258 259 259 260 259 260 261 261 262 262 261 261 261 260 260 258 258 258 255 255 259 258 255 253 253 254 254 254 255 256 256 255
253 254 256 255 255 256 256 258 258 259 259 259 260 260 261 261 261 262 263 263 262 262 262 262 261 260 260 259 258 257 257 259 256 256 255 254 254 253 254 254 254 255 256
Wind_Speed
9 9 11 11 11 11 11 10 11 10 9 11 9 10 10 9 8 9 9 8 10 9 8 8 8 7 5 5 5 4 5 3 2 2 4 4 5 7 7 7 7 7 7
9 10 11 10 10 11 11 11 10 11 10 10 10 11 11 10 9 9 9 8 9 9 8 9 8 6 7 6 5 6 4 4 3 1 2 5 5 8 7 8 8 9 7
9 10 11 10 10 11 11 10 10 11 11 11 11 11 10 9 9 8 9 9 9 9 8 8 7 6 7 5 5 5 4 4 3 2 3 3 3 7 5 5 8 8 7
9 10 10 9 9 9 9 9 10 9 11 11 10 10 9 8 8 7 8 9 9 8 8 8 7 7 6 5 6 5 5 4 4 3 3 3 3 3 2 6 8 7 8
8 9 9 8 8 8 9 9 9 10 9 9 10 9 8 8 6 6 7 7 7 7 7 7 8 8 11 9 5 5 5 4 4 4 3 2 3 4 7 6 5 7 9
8 8 7 7 8 8 8 8 8 9 9 9 8 8 8 6 13 13 9 7 7 7 6 6 7 8 9 11 11 11 8 5 6 3 2 4 5 5 5 6 5 7 5
7 7 7 7 8 7 7 7 8 8 8 8 8 8 8 7 13 14 13 6 7 6 6 5 6 5 6 6 8 9 8 10 10 5 6 5 6 6 6 7 7 7 6
7 7 6 6 7 6 6 6 6 6 6 6 7 7 7 7 11 12 11 6 6 6 6 6 6 4 6 6 5 4 4 4 5 5 5 5 4 4 5 6 6 6 7
6 6 5 5 6 6 6 5 4 6 6 6 6 6 6 6 11 9 6 5 6 5 5 4 4 4 8 10 5 4 3 3 5 9 9 9 10 11 9 3 4 7 4
5 5 5 5 6 6 5 4 3 4 6 5 7 6 6 6 9 10 7 3 5 3 3 3 3 3 7 8 3 4 3 4 5 6 6 7 8 7 10 6 5 1 3
5 5 5 5 6 4 4 3 3 4 5 5 6 4 5 4 5 8 9 5 3 3 2 2 2 6 7 8 8 3 5 4 5 3 3 4 4 4 3 4 6 4 2
5 5 4 4 4 4 4 3 3 4 4 4 4 3 2 3 4 5 5 4 4 2 1 2 3 8 8 10 7 10 9 5 2 2 2 2 3 2 4 5 5 4 5
5 5 4 3 3 4 4 3 3 3 3 2 2 2 1 1 1 4 5 7 6 3 3 6 9 10 10 7 10 11 3 1 1 1 2 2 3 4 4 4 4 5 6
6 5 4 4 3 3 2 2 2 2 2 2 2 2 0 1 0 0 1 2 4 4 7 3 5 7 8 7 4 5 2 1 2 2 2 2 3 3 3 2 4 6 6
5 4 4 3 3 3 2 2 2 1 3 3 2 2 2 1 2 4 4 2 3 5 2 2 2 2 2 2 2 2 2 2 2 2 2 2 3 4 5 3 2 3 3
5 4 3 3 2 2 2 0 3 3 3 4 5 4 2 4 6 7 8 9 10 11 4 2 1 1 2 3 3 5 1 2 2 2 2 2 3 5 6 7 6 3 7
4 5 3 3 3 2 1 1 1 3 6 6 6 6 6 6 7 7 9 11 11 5 2 1 2 2 2 2 3 2 5 3 2 2 2 5 5 5 5 6 7 7 7
4 6 4 3 3 3 3 2 2 3 2 2 4 3 6 8 8 8 11 8 3 3 1 2 3 3 2 3 3 3 5 4 3 4 4 4 3 3 5 6 6 7 8
3 2 3 2 3 3 3 3 3 2 2 3 3 4 4 7 8 9 7 3 3 3 3 3 3 3 3 3 4 3 3 4 4 3 3 5 4 2 6 6 7 9 10
3 5 4 4 3 3 2 3 2 3 3 2 3 3 2 2 2 3 2 2 3 4 3 4 4 4 4 4 4 4 4 3 4 4 5 5 5 4 7 7 7 8 9
4 2 4 2 3 3 3 4 4 3 3 3 4 3 9 4 5 4 4 4 5 5 5 5 5 5 4 4 4 4 5 6 5 5 5 5 3 5 5 6 7 8 9
4 4 3 5 4 4 4 3 3 3 3 3 4 4 13 4 3 5 6 6 6 6 5 5 6 6 6 6 6 6 6 7 6 5 6 5 3 4 5 7 8 8 9
4 5 5 3 3 3 3 3 3 4 4 5 5 6 4 6 7 7 7 7 6 6 5 5 7 7 5 6 6 7 7 8 7 5 6 5 5 5 4 7 8 9 8
5 5 5 4 4 5 5 5 5 6 7 7 7 7 7 7 7 8 8 7 7 7 7 7 7 10 8 6 7 7 8 8 5 6 8 7 7 7 6 7 9 10 10
5 5 5 6 6 6 5 6 7 8 8 8 8 7 7 7 8 9 9 8 8 8 9 8 8 10 12 14 12 10 10 14 10 8 5 7 10 10 10 8 10 10 12
6 6 7 5 5 6 6 8 8 7 8 8 8 8 8 9 9 9 9 9 9 9 10 8 10 14 14 12 13 13 13 14 12 12 8 8 9 8 8 10 13 9 12
Wind_Direction
56 61 65 65 68 71 72 68 69 70 65 68 68 65 62 59 54 68 67 61 70 66 54 62 58 43 44 36 38 42 43 23 26 359 59 23 55 33 20 18 6 11 353
56 63 65 68 70 73 72 71 77 79 73 73 70 67 59 55 56 67 71 65 69 64 57 58 47 45 40 37 37 41 32 33 47 356 336 17 58 16 15 12 3 0 344
55 61 61 61 64 65 68 69 71 76 74 70 67 64 59 52 59 66 75 76 73 70 66 63 52 49 43 36 36 36 20 27 17 31 354 19 26 21 358 360 355 347 345
60 62 60 57 60 62 62 65 68 72 78 74 68 65 61 57 57 65 79 82 82 75 70 65 57 55 51 50 45 25 25 29 23 31 31 12 31 353 349 350 347 347 332
65 65 61 56 56 62 62 60 61 68 74 76 76 68 62 59 68 66 73 81 88 90 72 67 55 37 52 56 64 38 31 35 28 33 26 1 7 357 2 338 334 329 317
68 67 62 61 63 60 60 64 65 67 70 71 69 68 66 65 76 81 79 79 74 85 89 80 64 48 40 46 54 44 58 45 40 29 11 14 3 351 338 342 338 348 348
76 68 67 66 68 60 60 67 69 72 78 79 71 69 69 64 75 80 77 73 77 68 62 77 71 56 45 34 42 47 33 44 44 48 16 5 338 334 331 341 345 335 316
82 77 72 75 78 69 69 73 75 79 77 78 76 61 65 69 77 84 88 88 88 77 69 65 73 44 55 52 33 40 27 39 23 24 11 337 319 338 340 349 344 318 297
80 76 69 82 89 84 77 69 78 91 89 87 82 76 60 55 73 82 83 95 100 99 86 73 57 25 38 39 31 16 28 23 6 5 1 357 354 353 353 7 341 1 330
98 88 77 81 86 80 76 70 72 98 101 102 96 75 64 40 60 70 66 72 84 90 94 81 47 12 27 12 62 360 350 342 358 354 351 350 349 345 360 11 353 18 329
110 101 83 79 91 86 81 75 79 88 89 86 95 85 82 47 29 53 68 64 55 47 36 39 10 333 352 351 11 345 298 12 1 345 331 326 322 327 349 352 336 324 265
109 96 78 68 95 96 96 77 79 99 102 93 105 92 81 63 74 47 57 52 72 59 347 308 283 339 345 337 352 319 320 19 23 335 330 295 291 300 326 316 298 277 267
115 117 112 98 107 125 120 113 92 95 107 112 123 120 116 107 32 54 31 19 359 46 329 316 338 333 345 346 329 327 54 20 287 321 275 252 269 304 307 302 275 264 274
139 143 143 136 122 88 92 95 99 104 119 134 128 116 57 9 316 316 292 315 314 317 300 296 294 332 335 336 342 335 319 272 245 249 262 270 310 316 309 235 303 324 305
146 154 143 141 142 112 104 132 132 153 153 151 174 152 140 301 258 288 308 260 247 261 313 36 13 349 335 312 305 300 298 337 339 291 293 296 286 313 308 320 284 299 283
152 155 158 149 154 148 154 282 258 206 199 223 231 194 216 255 299 302 304 311 307 306 54 55 308 289 295 309 312 318 279 297 272 292 283 274 301 307 307 310 305 286 290
152 165 163 161 158 149 148 133 213 314 238 234 247 240 260 273 288 299 306 306 313 351 86 264 253 268 267 280 284 278 304 302 302 295 287 306 304 298 301 300 298 289 290
172 175 167 167 164 155 164 173 169 185 232 305 321 278 274 277 287 295 302 328 358 6 166 222 260 264 268 273 276 281 302 311 312 309 304 291 268 252 295 288 283 287 295
156 155 148 156 170 175 167 155 180 177 198 231 314 315 328 295 293 300 321 137 207 252 241 258 242 253 259 247 262 258 253 281 285 289 279 282 272 232 276 273 282 287 289
192 189 176 174 175 178 187 182 191 208 220 235 254 247 295 37 331 278 269 249 243 252 254 253 255 248 247 248 258 257 265 251 259 245 263 265 268 243 273 280 284 291 293
183 188 185 163 176 184 195 208 211 207 225 233 247 227 247 213 252 243 250 243 244 248 247 235 241 241 240 239 238 246 247 262 257 244 251 262 242 267 262 270 278 282 285
178 175 166 188 197 208 217 209 209 216 223 244 266 264 275 275 252 251 248 250 245 235 236 233 243 229 224 216 221 234 246 253 254 237 254 261 245 253 259 276 281 281 285
172 182 195 191 192 207 228 224 225 228 241 241 251 264 239 248 252 252 256 255 246 247 236 225 244 254 229 231 226 226 233 242 238 205 238 252 254 259 251 269 274 278 280
187 191 189 194 196 212 216 223 223 226 235 245 246 247 248 247 249 252 254 256 252 250 243 232 235 242 250 229 225 224 232 241 221 225 219 244 259 261 256 260 266 271 274
188 192 198 205 209 220 219 224 227 233 234 235 244 242 247 245 249 251 250 245 245 244 248 237 236 242 239 242 242 228 227 238 233 215 210 228 244 251 256 259 265 273 273
188 200 215 212 220 225 226 236 238 237 240 243 243 244 244 243 244 247 250 245 244 244 244 244 240 236 241 244 243 238 236 239 234 230 226 232 239 243 242 248 258 259 263